sat.trackr.live / text

‹ back to catalog

STARLINK-34472

NORAD 64434 · 2025-129Y

PAYLOAD ACTIVE UNKNOWN

§ Identity

Operator
Country
US
Launch date
2025-06-17
Launch site
AFWTR
Launch vehicle
Mass (kg)
RCS (m²)

Purposes: comms

External: N2YO · Heavens-Above · Gunter

§ Orbital elements

Epoch: 2026-05-24T23:32:09.721248Z

Period
96.11 min
Inclination
70.0004°
Eccentricity
0.0003625
Mean motion
14.98337401 rev/d
Perigee alt
569.5 km
Apogee alt
574.6 km
Semi-major
6,950.2 km
B*
1.2449e-4
RAAN
242.1457°
Arg perigee
271.9710°
Mean anomaly
88.1034°
Rev number
5,271

§ Raw data

STARLINK-344721 64434U 25129Y   26144.98066807  .00001393  00000+0  12449-3 0  99992 64434  70.0004 242.1457 0003625 271.9710  88.1034 14.98337401 52711

JSON: /api/v1/satellites/64434 · /tle

For live sub-satellite position, see the globe view (requires WebGL).

§ Visibility from observer

Set your observer location to see the next 7 days of passes ≥ 10°. The values pass through the URL so the page stays shareable.

No JS? Fill the form by hand. The geolocation button needs JavaScript.